{"data":{"norad_id":55638,"epoch":"2026-09-20T22:00:03.000096Z","epoch_age_seconds":67079,"freshness":"FRESH","line1":"1 55638U 23021L   26263.91670139  .00085316  00000+0  57363-2 0  9998","line2":"2 55638  70.0003  72.0899 0003552 289.6946 104.3950 15.06268343  5716","mean_motion":15.06268343,"eccentricity":0.0003552,"inclination_deg":70.0003,"raan_deg":72.0899,"arg_perigee_deg":289.6946,"mean_anomaly_deg":104.395,"bstar":0.0057363,"rev_number":571,"period_min":95.600495535343,"perigee_km":545.15506992703,"apogee_km":550.07512421679,"semimajor_km":6925.7520970719,"source":"CELESTRAK","updated_at":"2026-09-21T09:00:33.281898Z"}}